Zurück zum Katalog

STARLINK-36895

AktivKommunikationSSO
NORAD 68038·PAYLOAD·🇺🇸 United States

Gestartet Mar 1, 2026 von Vandenberg Space Force Base

Loading…

Nächste Überflüge (nächste 24 Stunden)

TLE

AktuellSource: CelesTrak SupGP

Epoche: Sep 14, 2026, 20:51 UTC

1 68038C 26040Z   26257.86923611 -.00045544  00000+0 -14136-2 0  2572
2 68038  97.2855 205.3178 0001954  88.8242  25.1511 15.33465496    12

Verfolge STARLINK-36895 in Echtzeit mit AllMySat

Download on the App Store